Wind_Speed
12 12 12 11 11 11 11 11 11 11 11 11 11 11 12 12 13 13 14 14 14 14 14 13 12 12 13 13 13 14 14 14 15 15 16 16 16 17
13 13 13 12 12 12 12 12 12 12 11 12 12 12 13 13 13 14 14 14 14 15 14 14 14 14 14 14 14 14 15 15 16 16 17 18 18 18
15 15 15 14 14 13 13 13 13 13 13 13 12 13 13 14 14 15 15 15 15 15 15 16 15 15 15 16 15 15 16 16 17 16 17 17 18 18
15 16 16 16 15 15 15 15 15 14 14 14 14 14 14 15 15 15 15 16 16 17 17 17 16 16 16 17 17 17 17 17 18 18 18 19 19 19
16 16 16 16 16 15 15 15 15 15 15 15 15 16 16 17 17 17 17 17 18 18 18 18 18 18 18 18 18 18 19 19 19 19 20 20 20 21
18 17 17 16 16 16 16 17 17 17 17 17 17 17 18 18 18 19 19 19 19 20 20 19 19 19 19 20 20 20 20 20 21 21 21 21 21 22
19 19 18 18 18 18 18 18 18 18 19 19 19 18 19 20 20 21 21 21 21 21 21 21 21 22 21 21 21 21 21 22 22 22 22 22 23 23
20 20 20 20 20 20 19 20 20 19 19 20 20 20 21 21 21 21 22 22 22 22 22 23 23 23 23 23 22 22 23 23 23 23 23 23 24 24
23 23 22 22 22 21 21 21 21 21 21 21 21 22 22 22 22 23 23 23 22 22 22 22 23 23 23 23 23 23 23 24 24 24 24 24 25 25
24 24 23 24 23 23 23 23 23 23 23 22 22 23 23 23 24 24 24 24 24 24 24 24 24 24 24 24 24 24 24 24 24 24 24 25 26 26
26 26 26 25 26 26 25 25 25 25 24 24 24 24 24 24 24 24 25 25 25 25 25 25 25 25 25 25 24 25 25 25 26 26 26 26 26 26
28 28 28 28 27 27 26 26 26 26 26 25 26 26 26 26 25 25 25 25 25 25 26 26 26 26 25 25 25 26 27 27 27 27 28 27 27 27
29 29 30 29 28 28 27 27 26 26 26 26 27 27 27 26 26 26 27 26 26 26 27 27 26 26 26 26 27 27 28 28 28 29 29 29 28 28
30 30 30 29 29 28 28 28 28 28 28 27 27 27 27 27 27 27 28 28 28 28 28 28 28 27 27 27 27 28 28 28 29 29 29 29 28 28
31 31 31 30 30 30 30 30 30 30 30 29 29 29 29 28 28 28 29 28 29 29 29 29 29 29 28 28 28 28 28 28 29 29 29 29 29 29
32 32 32 33 32 32 33 32 32 32 32 31 30 30 30 29 29 30 30 30 30 30 30 30 30 30 30 30 30 30 29 29 29 29 29 29 29 29
34 34 34 34 34 34 34 34 34 33 32 32 31 31 30 30 30 30 31 31 31 31 31 31 31 31 30 30 30 30 30 30 31 31 30 30 30 30
35 34 34 35 35 35 36 36 36 35 34 34 33 33 32 31 31 32 32 32 31 31 31 31 30 31 31 31 30 30 31 31 31 31 31 30 30 31
37 36 35 36 36 37 37 37 37 36 36 35 34 34 34 33 33 33 33 32 32 32 31 31 31 31 31 30 30 31 32 32 32 31 31 30 31 31
37 37 37 37 37 37 38 37 37 37 36 36 35 35 35 34 33 33 33 32 32 32 32 32 32 32 31 31 31 31 32 33 32 32 32 31 31 32
38 37 37 37 37 37 38 38 38 38 38 37 36 35 35 35 34 34 33 33 33 32 32 32 33 33 33 33 32 32 32 33 33 32 32 32 32 32
38 38 37 38 38 38 38 38 37 37 38 37 37 36 36 36 36 35 35 35 35 34 34 34 35 35 34 33 32 32 32 33 33 33 33 33 33 32
39 39 39 39 38 37 37 37 37 37 37 38 37 36 36 36 36 36 36 36 36 36 36 36 36 37 36 34 33 33 33 33 34 34 34 34 34 33
Wind_Direction
284 282 282 285 286 287 288 288 288 289 289 286 284 281 276 273 269 267 267 266 267 270 269 270 270 270 269 269 268 267 266 266 266 266 265 267 268 266
283 280 280 281 282 282 284 286 288 288 289 287 285 283 280 278 273 271 269 267 267 267 268 267 268 270 270 270 270 269 267 266 267 271 273 273 273 275
281 279 277 277 279 280 281 284 285 285 284 283 281 281 279 279 277 275 273 271 270 268 268 268 269 270 270 271 271 271 271 270 271 273 276 278 279 280
278 277 276 275 277 278 280 282 282 282 282 281 278 279 278 277 277 275 273 272 271 269 267 268 270 271 271 271 271 271 272 272 272 273 275 277 279 280
276 276 277 276 276 278 280 281 282 282 282 281 279 278 277 276 276 275 276 274 273 271 270 269 269 270 270 271 272 273 272 272 273 275 275 276 278 281
276 277 277 276 277 279 280 281 281 282 282 282 282 280 278 277 277 277 276 275 274 273 271 270 269 270 270 271 273 273 273 274 274 275 276 277 280 282
275 276 276 275 277 279 280 281 281 281 282 282 281 281 281 278 278 277 276 275 273 272 271 270 270 270 270 272 273 273 273 275 276 276 277 278 280 282
274 275 275 276 277 278 279 281 280 280 280 280 279 279 280 280 279 278 277 276 273 272 271 271 272 271 271 272 273 273 274 275 276 277 278 279 280 281
272 272 273 273 275 276 278 280 280 278 278 280 279 278 280 279 280 279 277 276 275 273 272 273 272 272 272 272 272 273 275 276 277 277 278 279 281 281
273 271 272 272 274 274 276 278 279 279 277 278 278 278 279 280 280 279 277 276 274 274 274 273 272 271 272 272 273 274 275 276 278 278 279 280 280 281
270 271 271 272 272 273 274 276 277 278 276 275 276 276 277 278 278 278 277 276 274 274 273 273 273 272 272 272 273 274 276 277 278 278 279 280 281 282
269 270 270 270 270 272 273 275 275 276 275 273 274 275 275 276 276 277 276 276 275 273 272 273 272 272 272 273 273 274 275 277 278 279 280 281 282 281
269 269 270 270 270 272 272 273 274 275 275 274 274 274 275 275 276 276 276 275 275 274 272 272 272 272 272 273 274 276 276 276 277 278 278 279 279 280
271 271 271 270 270 271 271 272 273 274 275 275 275 274 274 275 275 276 275 275 275 273 271 271 271 271 272 273 274 275 276 278 278 278 279 279 279 279
272 272 271 271 271 271 271 271 272 274 274 274 274 273 273 273 274 274 275 275 275 275 272 271 270 270 272 273 274 275 276 277 278 277 278 280 280 281
272 272 272 271 270 270 270 270 272 273 274 274 272 271 271 271 272 273 274 275 275 274 273 271 269 270 272 274 274 275 276 276 277 278 278 279 280 282
272 273 272 271 270 269 269 269 271 272 273 273 272 271 271 271 271 272 273 273 274 275 273 271 269 270 271 273 273 273 276 277 278 279 278 279 281 283
272 272 272 272 271 270 269 269 270 270 271 271 270 270 269 270 272 272 272 273 274 274 273 271 270 270 272 273 272 273 275 276 278 279 279 280 281 283
272 272 273 273 271 269 269 269 270 270 269 269 268 268 268 269 271 271 271 272 272 272 271 270 269 270 272 272 271 273 275 276 277 278 279 280 282 283
274 274 274 274 273 270 269 269 268 268 268 269 268 266 266 266 268 269 269 270 271 270 269 269 269 271 272 271 272 274 275 276 277 277 278 280 282 284
272 272 273 273 274 273 271 269 268 268 268 267 267 267 266 265 266 268 268 268 269 270 269 269 270 271 271 271 273 275 275 276 277 278 278 280 282 283
271 271 271 273 273 273 272 271 270 269 267 266 266 266 266 266 266 267 268 268 269 269 269 269 270 271 271 272 274 275 275 275 277 277 277 279 281 282
270 271 271 272 273 272 271 270 270 269 268 266 264 265 266 266 267 268 268 269 268 268 267 268 269 270 270 272 274 275 275 275 276 277 278 279 281 282
Height
5820 5820 5819 5818 5818 5817 5816 5816 5815 5814 5814 5813 5812 5811 5810 5810 5810 5810 5810 5810 5810 5810 5809 5809 5809 5808 5808 5808 5807 5807 5806 5806 5805 5804 5804 5803 5803 5802
5817 5817 5816 5815 5814 5814 5813 5812 5812 5811 5810 5809 5809 5808 5807 5806 5806 5806 5806 5805 5805 5805 5805 5805 5805 5804 5804 5803 5803 5802 5802 5802 5801 5800 5799 5799 5798 5797
5813 5813 5812 5811 5811 5810 5809 5809 5808 5807 5807 5806 5805 5804 5803 5803 5802 5801 5801 5801 5801 5800 5800 5800 5800 5800 5800 5799 5799 5798 5798 5797 5797 5796 5795 5794 5793 5793
5809 5808 5808 5807 5807 5806 5805 5804 5804 5803 5802 5801 5801 5800 5799 5798 5798 5797 5796 5796 5796 5795 5795 5795 5795 5795 5795 5794 5794 5794 5793 5793 5792 5791 5791 5790 5789 5787
5804 5803 5803 5803 5802 5802 5801 5800 5799 5798 5798 5797 5796 5795 5794 5794 5793 5792 5791 5791 5791 5790 5790 5790 5790 5790 5790 5789 5789 5788 5788 5787 5787 5786 5785 5784 5783 5782
5799 5798 5798 5798 5797 5797 5796 5795 5794 5794 5793 5792 5791 5790 5789 5788 5788 5787 5786 5786 5785 5785 5784 5784 5784 5784 5784 5784 5783 5783 5782 5781 5781 5780 5779 5778 5777 5776
5793 5793 5793 5792 5792 5791 5790 5790 5789 5788 5787 5786 5785 5784 5784 5783 5782 5781 5781 5780 5779 5779 5779 5778 5778 5778 5777 5777 5777 5776 5776 5775 5774 5774 5773 5772 5771 5770
5787 5787 5787 5786 5786 5785 5785 5784 5783 5782 5781 5781 5780 5779 5778 5777 5776 5775 5774 5774 5773 5773 5772 5772 5771 5771 5770 5770 5770 5769 5769 5769 5768 5767 5766 5765 5764 5763
5781 5781 5780 5780 5779 5779 5778 5777 5777 5776 5775 5775 5774 5772 5771 5770 5769 5769 5767 5767 5766 5765 5765 5765 5764 5764 5763 5763 5762 5762 5762 5761 5760 5760 5759 5758 5756 5755
5774 5773 5773 5773 5772 5772 5771 5771 5770 5769 5768 5767 5767 5765 5764 5763 5762 5762 5761 5760 5759 5758 5757 5757 5757 5757 5756 5755 5755 5755 5754 5753 5753 5752 5751 5750 5749 5747
5766 5766 5766 5765 5765 5764 5764 5763 5763 5762 5760 5760 5759 5758 5757 5756 5755 5754 5753 5752 5752 5751 5750 5750 5749 5749 5749 5748 5747 5747 5746 5746 5745 5744 5743 5742 5740 5739
5758 5758 5758 5757 5757 5756 5756 5755 5754 5754 5753 5752 5751 5750 5749 5748 5747 5746 5746 5745 5744 5743 5743 5742 5742 5741 5741 5741 5740 5739 5738 5737 5737 5736 5734 5733 5732 5731
5750 5749 5749 5749 5748 5748 5747 5747 5746 5745 5744 5743 5743 5742 5741 5740 5739 5738 5738 5737 5736 5736 5735 5734 5734 5733 5733 5733 5732 5731 5730 5729 5728 5727 5726 5725 5723 5722
5740 5740 5740 5740 5739 5739 5738 5738 5737 5736 5736 5735 5734 5733 5733 5732 5731 5730 5729 5729 5728 5727 5726 5726 5726 5725 5725 5724 5724 5723 5722 5721 5719 5718 5717 5716 5714 5713
5730 5730 5730 5730 5730 5729 5729 5728 5728 5727 5726 5726 5725 5724 5724 5723 5722 5721 5721 5720 5719 5718 5717 5717 5717 5716 5716 5716 5715 5715 5714 5712 5710 5709 5708 5707 5706 5704
5720 5720 5720 5719 5719 5719 5718 5718 5718 5717 5717 5716 5716 5715 5714 5714 5713 5713 5712 5711 5710 5710 5708 5708 5707 5707 5707 5706 5706 5705 5704 5703 5702 5700 5699 5698 5697 5695
5709 5709 5709 5708 5708 5708 5707 5707 5707 5707 5706 5706 5705 5705 5704 5704 5703 5703 5702 5701 5701 5700 5699 5698 5697 5697 5697 5697 5696 5696 5694 5694 5692 5690 5689 5689 5688 5686
5698 5698 5697 5697 5697 5696 5696 5696 5696 5695 5695 5695 5695 5694 5694 5694 5693 5693 5692 5691 5691 5690 5690 5689 5688 5687 5687 5687 5687 5686 5685 5684 5682 5681 5680 5679 5678 5677
5686 5686 5685 5685 5685 5684 5684 5684 5684 5684 5683 5683 5683 5683 5683 5683 5683 5682 5681 5681 5680 5680 5679 5678 5678 5677 5677 5677 5677 5675 5674 5673 5672 5671 5670 5669 5668 5667
5673 5673 5673 5673 5672 5672 5672 5671 5671 5671 5671 5671 5671 5671 5671 5671 5671 5671 5671 5670 5670 5669 5669 5668 5668 5667 5667 5667 5666 5665 5664 5662 5662 5661 5660 5658 5657 5656
5661 5661 5660 5660 5659 5659 5659 5658 5659 5659 5659 5659 5659 5659 5659 5660 5660 5660 5659 5659 5659 5658 5658 5658 5657 5656 5656 5656 5656 5655 5654 5652 5651 5650 5649 5648 5647 5646
5648 5648 5647 5647 5646 5646 5646 5646 5645 5646 5646 5646 5647 5647 5647 5647 5648 5648 5647 5647 5647 5647 5647 5647 5646 5645 5645 5645 5644 5644 5643 5642 5640 5639 5638 5638 5637 5636
5635 5634 5634 5634 5633 5633 5633 5633 5633 5633 5633 5633 5634 5634 5634 5635 5635 5635 5635 5635 5635 5635 5635 5635 5634 5634 5633 5633 5633 5633 5632 5630 5629 5629 5628 5626 5625 5624